Location: Arrodets-la-Barthe
(43.0306°N, 0.2829°E)
Time: 21:22:05
(UTC+00:00)

QB50P2 - Visible Passes

Search period start: 31 March 2023 00:00
Search period end: 10 April 2023 00:00
Orbit: 583 x 598 km, 98.0° (Epoch: 31 March)

Date Brightness Start Highest point End Pass type
(mag) Time Alt. Az. Time Alt. Az. Time Alt. Az.
31 Mar ? 02:51:35 10° NNW 02:51:48 11° NNW 02:51:48 11° NNW visible
01 Apr ? 01:23:43 10° NNE 01:23:43 10° NNE 01:23:43 10° NNE visible
01 Apr ? 03:00:09 10° NNW 03:00:17 11° NNW 03:00:17 11° NNW visible
02 Apr ? 01:31:53 10° NNE 01:32:10 12° NNE 01:32:10 12° NNE visible
03 Apr ? 01:40:04 10° NNE 01:40:37 13° NNE 01:40:37 13° NNE visible
04 Apr ? 01:48:16 10° NNE 01:49:02 15° NNE 01:49:02 15° NNE visible
05 Apr ? 01:56:29 10° N 01:57:26 17° N 01:57:26 17° N visible
06 Apr ? 02:04:41 10° N 02:05:49 18° N 02:05:49 18° N visible
07 Apr ? 02:12:55 10° N 02:14:11 19° N 02:14:11 19° N visible
08 Apr ? 02:21:09 10° N 02:22:32 19° N 02:22:32 19° N visible
09 Apr ? 02:29:23 10° N 02:30:51 19° NNW 02:30:51 19° NNW visible
